Location: Forli
(44.2227°N, 12.0407°E)
Time: 16:17:35
(UTC+01:00)

BlueWalker 3 - Pass Details

Date: 25 February 2026
Orbit: 451 x 458 km, 53.2° (Epoch: 6 March)

Event Time Altitude Azimuth Distance (km) Brightness Sun altitude
Exits shadow 05:39:49 12° 213° (SSW) 1,462 4.0 -14.4°
Maximum altitude 05:42:57 49° 139° (SE) 596 2.5 -13.8°
Drops below altitude 10° 05:46:26 10° 64° (ENE) 1,598 5.6 -13.2°
Sets 05:48:37 0° 59° (ENE) 2,473 6.5 -12.8°
